Location: Newark
(36.8464°N, 25.6817°E)
Time: 10:57:56
(UTC+00:00)

Envisat - Pass Details

Date: 22 October 2019
Orbit: 764 x 766 km, 98.1° (Epoch: 14 November)

Event Time Altitude Azimuth Distance (km) Brightness Sun altitude
Rises 17:53:24 0° 218° (SW) 3,219 6.6 -28.9°
Reaches altitude 10° 17:57:35 10° 252° (WSW) 2,300 6.2 -29.7°
Maximum altitude 17:59:06 11° 270° (W) 2,216 6.3 -30.0°
Drops below altitude 10° 18:00:36 10° 287° (WNW) 2,304 6.4 -30.3°
Sets 18:04:50 0° 322° (NW) 3,237 6.9 -31.2°
